Other Public Products
Issued by NWS Grand Forks, ND

Home | Current Version | Previous Version | Text Only | Print | Product List | Glossary Off
Versions: 1 2 3 4 5 6 7 8 9 10 11 12 13 14 15 16 17 18 19 20 21 22 23 24 25 26 27 28 29 30 31 32 33 34 35 36 37 38 39 40 41 42 43 44 45 46 47 48 49 50

000
FPUS83 KFGF 120131
OPUFGF
PRAIRIE TO PINES WEATHER ROUNDUP
NATIONAL WEATHER SERVICE EASTERN NORTH DAKOTA/GRAND FORKS ND
800 PM CDT FRI JUL 11 2014

 **SATELLITE DATA USED TO AUGMENT SKY COVER AT AUTOMATED STATIONS**
 *****  WEATHER ACROSS EASTERN NORTH DAKOTA  *****

CITY           SKY/WX    TMP DP  RH WIND       PRES   REMARKS
GRAND FORKS    SUNNY     79  57  46 NW8       29.94R
GRAND FORKS AF SUNNY     78  55  45 N8        29.96R
GRAND CITY NWS   N/A     75 N/A N/A N10         N/A
BUXTON           N/A     80  59  47 W9          N/A
DEVILS LAKE    SUNNY     75  54  46 NW15      30.00R
FARGO          SUNNY     82  56  40 NW10      29.95R
WAHPETON ARPT  CLEAR     81  59  47 NW6       29.96R
$$

 *****  WEATHER ACROSS CENTRAL AND WESTERN NORTH DAKOTA  *****

CITY           SKY/WX    TMP DP  RH WIND       PRES   REMARKS
JAMESTOWN      SUNNY     79  57  46 N10       30.01R
BISMARCK       MOSUNNY   79  54  41 N12       30.06R
MINOT          SUNNY     72  53  51 NW12      30.04S
MINOT AFB      SUNNY     73  54  51 NW13      30.04R
GARRISON         N/A     72  60  66 NW6       30.06R
WILLISTON      SUNNY     75  50  41 N9        30.09R
DICKINSON      CLOUDY    74  56  53 NE6       30.10R
HETTINGER      PTSUNNY   74  58  57 E7        30.10S
$$

 *****  OTHER OBSERVATIONS NORTHEAST NORTH DAKOTA  *****

CITY           SKY/WX    TMP DP  RH WIND       PRES   REMARKS
WALHALLA         N/A     73  55  53 NW10G16     N/A
LANGDON        FAIR      72  54  53 NW12      30.00R
CAVALIER       FAIR      75  55  50 NW10G17   29.95S
GRAFTON        FAIR      73  54  49 NW15G22   29.95S
CANDO          FAIR      72  55  56 NW8       30.02R
FORT TOTTEN      N/A     74  55  51 NW6       29.95
ROLLA          FAIR      68  54  60 NW12G17   30.04R
RUGBY          FAIR      72  55  56 NW10      30.03R
 ***** THE ABOVE OBSERVATIONS ARE NON NWS ARE NOT QUALITY
        CONTROLLED AND MAY MIS-REPORT RAIN FOR SNOW...
$$

 *****  OTHER OBSERVATIONS SOUTHEAST NORTH DAKOTA *****

CITY           SKY/WX    TMP DP  RH WIND       PRES   REMARKS
COOPERSTOWN    NOT AVBL
VALLEY CITY    FAIR      77  59  53 NW8       30.01R
OAKES          NOT AVBL
GWINNER          N/A     82  63  51 NW8       30.00R
SHEYENNE NWR     N/A     85  58  39 N3        29.95S
BUFFALO          N/A     80  49  32 NW7         N/A
WYNDMERE       NOT AVBL
 ***** THE ABOVE OBSERVATIONS ARE NON NWS ARE NOT QUALITY
       CONTROLLED AND MAY MIS-REPORT RAIN FOR SNOW...
$$

  *****  WEATHER ACROSS NORTHERN MINNESOTA  *****

CITY           SKY/WX    TMP DP  RH WIND       PRES   REMARKS
FLAG ISLAND    SUNNY     73  55  53 NW12      29.90R
WARROAD        SUNNY     75  55  50 W12       29.92R
ROSEAU         SUNNY     73  57  56 NW8       29.93R
HALLOCK        SUNNY     77  52  41 NW14G20   29.93R
THF RVR FALLS  SUNNY     77  54  44 NW10      29.95R
HALSTAD          N/A     77  55  46 N5          N/A
FOSSTON        SUNNY     77  55  47 CALM      29.97R
BAUDETTE       SUNNY     77  54  44 MISG      29.91R
WASKISH        SUNNY     77  63  61 W8        29.92R
CROOKSTON      SUNNY     75  61  60 NW9       29.95R
$$
  *****  WEATHER ACROSS CENTRAL AND WEST MINNESOTA  *****

CITY           SKY/WX    TMP DP  RH WIND       PRES   REMARKS
BEMIDJI        SUNNY     76  55  48 W7        29.96R
PARK RAPIDS    SUNNY     78  64  61 NW7       29.96R
WADENA         SUNNY     77  64  65 NW5       29.98R
DETROIT LAKES  SUNNY     79  61  53 NW5       29.99R
MOORHEAD       SUNNY     81  63  54 N6        29.97R
FERGUS FALLS   SUNNY     81  63  54 CALM      29.96R
ELBOW LAKE     FAIR      81  66  61 N3        29.96R
MORRIS MN      MOSUNNY   82  72  69 N3        29.95R
STAPLES        CLEAR     79  68  69 W3        29.97R
WHEATON        MOSUNNY   81  66  61 NW5       29.97R
$$
  *****  WEATHER ELSEWHERE ACROSS MINNESOTA  *****

CITY           SKY/WX    TMP DP  RH WIND       PRES   REMARKS
DULUTH         MOCLDY    73  68  84 SW8       29.95S THUNDER
INTRNTL FALLS  CLEAR     76  55  48 W9        29.89R
ELY            PTCLDY    70  61  73 SW3       29.92R
CLOQUET        MOCLDY    73  68  83 S6        29.95S
BRAINERD       MOCLDY    84  72  67 S7        29.95R
HIBBING        PTCLDY    72  62  71 S3        29.93R
ALEXANDRIA     SUNNY     83  69  62 N6        29.98R
SAINT CLOUD    CLEAR     81  72  74 S6        29.95R
MINNEAPOLIS    MOCLDY    80  69  69 VRB5      29.97R
$$

  *****  WEATHER ACROSS SOUTH DAKOTA  *****

CITY           SKY/WX    TMP DP  RH WIND       PRES   REMARKS
SIOUX FALLS    PTSUNNY   79  72  79 S7        29.99R
BROOKINGS      NOT AVBL
WATERTOWN      MOSUNNY   84  63  49 NE7       29.99R
HURON          PTSUNNY   85  67  54 NE8       29.95R
SISSETON         N/A     85  69  58 N6        29.95R
ABERDEEN       MOSUNNY   81  65  58 N7        29.98R
MITCHELL       PTSUNNY   84  73  69 SE7       29.97R HX  90
PIERRE         CLOUDY    77  62  59 CALM      29.97S
MOBRIDGE       PTSUNNY   81  66  60 N9        30.00R
RAPID CITY     CLOUDY    66  63  90 SW12      30.07F
$$

  *****  SOME WEATHER IN NEARBY STATES *****

CITY           SKY/WX    TMP DP  RH WIND       PRES   REMARKS
GLASGOW MT     SUNNY     78  48  34 N8        30.09S
GREAT FALLS MT SUNNY     75  53  46 E8        30.11S
CHEYENNE WY    PTSUNNY   73  59  61 NE10      30.22R
SCOTTSBLUFF NE CLOUDY    75  66  73 CALM      30.09R
OMAHA NE       MOCLDY    81  73  76 E7        29.97F
DES MOINES IA  CLOUDY    77  71  82 E5        30.01S
DAVENPORT IA   MOCLDY    76  67  73 S7        30.07S
CHICAGO IL     MOCLDY    75  57  53 S7        30.10F
EAU CLAIRE WI  CLOUDY    75  67  76 S8        30.00R
LA CROSSE WI   CLOUDY    77  65  66 S9        30.03R
$$

  *****  SOME NATIONAL WEATHER *****

CITY           SKY/WX    TMP DP  RH WIND       PRES   REMARKS
LA GUARDIA NY  PTCLDY    75  64  68 S9        30.19S
RALEIGH NC     PTCLDY    78  68  71 SE6       30.18S
ATLANTA GA     MOCLDY    79  71  76 CALM      30.15R
NEW ORLEANS LA CLOUDY    79  73  82 S3        30.12R
OKLAHOMA CITY  CLEAR     87  60  40 S9        30.04R
ALBUQUERQUE NM LGT RAIN  82  58  43 SW14G24   30.14R
SALT LAKE CITY MOSUNNY   85  49  28 S6        30.03S
LOS ANGELES CA MOSUNNY   71  61  70 W18       29.97F
BOISE ID       PTSUNNY   94  42  16 W9        29.89R HX  90
SEATTLE WA     MOSUNNY   87  53  31 W6        29.97R
$$

*** WEATHER ACROSS MANITOBA...SASKATCHEWAN AND ONTARIO ***
                ***ONTARIO***

CITY           SKY/WX    TMP DP  RH WIND       PRES   REMARKS
GERALDTON      CLOUDY    61  59  94 SW8       29.87F
THUNDER BAY    MOCLDY    63  59  88 E5        29.87F
SIOUX LOOKOUT  PTCLDY    75  54  46 NW10      29.82R
TORONTO        MOCLDY    68  54  60 SE7       30.18S
BIG TROUT LK   CLOUDY    68  52  56 W10G18    29.61R
PICKLE LAKE    MOCLDY    68  63  83 S9        29.74R
DRYDEN         SUNNY     75  50  41 W9G23     29.85R
KENORA         MOSUNNY   72  52  49 NW14G23   29.91R
$$
                *** MANITOBA***

CITY           SKY/WX    TMP DP  RH WIND       PRES   REMARKS
BRANDON        PTSUNNY   72  52  49 NW17      30.00R
DAUPHIN        MOSUNNY   72  54  53 NW9G17    29.95R
ISLAND LAKE    LGT RAIN N/A N/A N/A NW17G35     N/A
PILOT MOUND      N/A     68  55  64 NW9         N/A
THE PAS        CLOUDY    68  46  45 NW14      29.86S
THOMPSON       LGT RAIN  61  50  67 W23G29    29.70R
WINNIPEG       MOSUNNY   72  54  53 NW13G21   29.94R
LYNN LAKE      MOSUNNY   61  45  55 NW13G25   29.75R
CHURCHILL      LGT RAIN  61  57  88 S5        29.37F
GILLAM         MOSUNNY   61  50  67 W25G36    29.53F
$$
                ***SASKATCHEWAN***

CITY           SKY/WX    TMP DP  RH WIND       PRES   REMARKS
ESTEVAN        SUNNY     70  54  56 NW12      30.08S
KINDERSLEY     MOSUNNY   70  50  49 W5        30.10
LLOYDMINSTER   MOSUNNY   68  54  60 W9        30.06S
PRINCE ALBERT  MOSUNNY   70  50  49 NW15      29.98F
REGINA         MOSUNNY   70  54  56 NW9       30.07S



USA.gov is the U.S. government's official web portal to all federal, state and local government web resources and services.